Regional Weather Roundup
Issued by NWS

Home | Current Version | Previous Version | Graphics & Text | Print | Product List | Glossary On
Versions: 1 2 3 4 5 6 7 8 9 10 11 12 13 14 15 16 17 18 19 20 21 22 23 24 25 26 27 28 29 30 31 32 33 34 35 36 37 38 39 40 41 42 43 44 45 46 47 48 49 50
000
ASUS43 KIND 210509
RWRIN

WEATHER ROUNDUP FOR INDIANA
NATIONAL WEATHER SERVICE INDIANAPOLIS IN
100 AM EDT MON APR 21 2014

NOTE: "FAIR" INDICATES FEW OR NO CLOUDS BELOW 12,000 FEET WITH NO
SIGNIFICANT WEATHER AND/OR OBSTRUCTIONS TO VISIBILITY.

* - STATION DOES NOT REPORT WEATHER SUCH AS PRECIPITATION OR FOG.

+ - STATION NOT QUALITY CONTROLLED BY THE NATIONAL WEATHER SERVICE.
    USE DATA WITH CAUTION...ESPECIALLY DEWPOINT AND RELATIVE
    HUMIDITY OBSERVATIONS.

INZ001>003-010>013-019-020-210600-
NORTHWEST INDIANA

CITY           SKY/WX    TMP DP  RH WIND       PRES   REMARKS
GARY /AIRPORT/ MOCLDY    65  36  33 S5        30.04S
LA PORTE +     PTCLDY    59  30  33 S3        30.06S
MICHIGAN CITY+ PTCLDY    63  28  27 S5        30.05S
MONTICELLO +   PTCLDY    58  36  45 CALM      30.06F
RENSSELAER +   MOCLDY    55  37  50 SE3       30.06F
VALPARAISO     PTCLDY    59  33  37 S7        30.06S

$$

LMZ046-743>745-210600-
SOUTHERN LAKE MICHIGAN

STATION/POSITION TIME  TEMP WIND        PRES
                       AIR  DIR/SP/G
                 (UTC) (F)  (DEG/KT/KT) (MB)
MICHIGAN CITY    0500   65  150/  8/ 12   N/A

$$

INZ004-005-014>016-021>024-210600-
NORTH CENTRAL INDIANA

CITY           SKY/WX    TMP DP  RH WIND       PRES   REMARKS
GOSHEN         CLEAR     49  38  65 SE6       30.07F
LOGANSPORT +   CLEAR     52  36  54 S3        30.08F
PERU/GRISSOM   CLEAR     53  41  62 SE5       30.08F
ROCHESTER +    CLEAR     55  46  71 SE3       30.07F
SOUTH BEND     CLEAR     58  32  37 SE3       30.07F
WARSAW +       CLEAR     46  36  66 CALM      30.07F

$$

INZ006>009-017-018-025>027-210600-
NORTHEAST INDIANA

CITY           SKY/WX    TMP DP  RH WIND       PRES   REMARKS
ANGOLA *+      CLEAR     48  37  66 CALM      30.08F
AUBURN +       CLEAR     52  34  50 CALM      30.09F
FORT WAYNE     PTCLDY    50  38  63 CALM      30.10F

$$

INZ028-029-035-036-043>045-051>053-210600-
WEST CENTRAL INDIANA

CITY           SKY/WX    TMP DP  RH WIND       PRES   REMARKS
GREENCASTLE +  PTCLDY    54  41  62 CALM      30.09S
LAFAYETTE      PTCLDY    51  41  68 CALM      30.07F
TERRE HAUTE    CLEAR     52  45  77 CALM      30.08F

$$

INZ030>032-037>040-046>048-054>057-064-065-210600-
CENTRAL INDIANA

CITY           SKY/WX    TMP DP  RH WIND       PRES   REMARKS
CP ATTERBURY + PTCLDY    50  43  76 CALM      30.10F
INDIANAPOLIS   PTCLDY    57  38  48 CALM      30.08F
-EAGLE CREEK   PTCLDY    54  45  71 CALM      30.08F
KOKOMO *+      CLEAR     52  39  62 CALM      30.09S
MARION +       CLEAR     51  38  62 CALM      30.09F
MT COMFORT *+  CLEAR     50  43  76 CALM      30.09F
SHELBYVILLE    CLEAR     52  42  69 CALM      30.09S
ZIONSVILLE +   PTCLDY    51  37  59 CALM      30.09F

$$

INZ033-034-041-042-049-050-058-059-210600-
EAST CENTRAL INDIANA

CITY           SKY/WX    TMP DP  RH WIND       PRES   REMARKS
MUNCIE         CLEAR     50  41  71 S3        30.09F

$$

INZ060-061-067>069-081>083-085>088-210600-
SOUTHWEST INDIANA

CITY           SKY/WX    TMP DP  RH WIND       PRES   REMARKS
EVANSVILLE     CLEAR     57  48  72 CALM      30.09F
HUNTINGBURG *+ PTCLDY    55  43  62 CALM      30.09F
WASHINGTON +   PTCLDY    52  46  80 CALM      30.08S

$$

INZ062-063-066-070>080-084-089>092-210600-
SOUTH CENTRAL AND SOUTHEAST INDIANA

CITY           SKY/WX    TMP DP  RH WIND       PRES   REMARKS
BLOOMINGTON    CLEAR     51  42  71 CALM      30.09F
SEYMOUR +      CLEAR     48  32  53 CALM      30.09F

$$




USA.gov is the U.S. government's official web portal to all federal, state and local government web resources and services.